Temp
24 24 24 24 23 23 23 23 23 22 22 21 21 21 21 21 21 21 20 20 20 20 20 20 20 19 19 19 20 20 19 19 19 19 19 19 19 19 19 19 19 19 19 19 19 19 19 19 19 19 19 19 20 20 20 20 20 20 20 20 20 20 20
24 24 24 24 23 23 23 23 23 22 22 22 21 21 21 21 21 21 20 20 21 20 20 20 20 20 19 19 19 20 19 19 19 19 19 19 19 19 19 19 19 19 19 19 19 19 19 19 19 19 19 19 19 20 20 20 20 20 20 20 20 20 20
24 23 23 23 23 23 23 23 22 22 22 22 22 21 21 21 21 20 21 21 21 21 20 20 20 20 19 19 19 19 19 19 19 19 19 19 19 19 19 19 19 19 19 19 19 19 19 19 19 19 19 19 19 19 19 19 20 20 20 20 20 20 20
23 23 22 22 22 22 22 22 22 22 22 22 21 21 21 21 21 21 21 21 21 21 20 20 20 20 19 19 19 19 19 19 19 19 19 20 20 20 20 19 19 19 19 19 19 19 19 19 19 19 19 19 19 19 19 19 19 19 20 20 20 19 20
22 22 22 22 22 21 22 22 21 22 22 21 21 21 22 22 21 21 21 21 21 21 20 20 20 20 19 19 19 19 19 19 19 19 19 20 20 20 20 20 20 20 20 20 19 19 19 19 19 19 19 20 20 19 20 20 20 19 20 20 20 19 19
22 22 21 21 21 21 21 21 21 21 21 21 21 21 22 23 22 21 21 21 21 21 21 20 21 20 20 20 20 20 19 19 19 20 20 20 20 20 20 20 20 20 20 20 20 20 19 19 19 19 19 20 20 19 20 20 19 19 19 19 19 19 19
22 22 21 21 21 21 21 21 21 21 20 20 21 21 22 22 21 21 21 20 20 21 21 21 21 21 20 20 20 20 20 20 20 20 20 20 20 20 20 20 20 20 20 20 20 20 20 19 19 19 19 19 20 20 20 19 19 19 19 19 19 19 19
21 21 21 20 20 20 20 21 21 20 20 20 20 21 21 21 21 21 21 21 20 21 21 21 21 21 20 20 20 20 20 20 20 20 20 20 20 20 20 20 20 20 20 20 20 20 20 20 20 19 19 19 19 19 19 19 19 19 19 19 19 19 19
21 20 20 20 20 20 19 20 20 20 20 20 20 20 20 21 21 21 21 21 20 20 21 21 21 20 20 20 20 20 20 20 20 20 20 20 20 21 21 21 21 20 20 20 20 20 20 20 20 20 19 19 19 19 19 19 19 19 19 19 19 19 19
20 20 20 20 19 19 19 19 19 19 19 19 20 20 20 20 20 20 20 20 20 20 20 21 21 20 20 21 21 21 20 20 20 20 20 20 21 21 21 21 21 21 21 21 21 21 20 20 20 19 19 20 20 20 19 19 19 19 19 19 19 19 19
20 20 20 20 19 19 19 19 19 19 19 19 19 19 20 20 20 20 20 20 20 19 20 20 20 20 20 21 21 20 20 20 20 20 20 20 21 21 21 21 22 21 21 21 21 21 21 20 20 19 20 20 20 20 20 20 20 19 19 19 19 20 20
20 20 19 19 19 19 19 19 19 19 19 19 19 18 19 19 19 19 19 19 19 19 19 19 20 19 20 20 20 20 20 20 20 20 20 20 20 21 21 21 22 22 21 21 21 21 21 21 20 20 20 21 21 20 21 21 20 20 20 19 20 20 20
19 19 19 19 19 19 19 19 18 18 18 18 18 18 18 19 19 19 19 19 19 19 19 19 20 20 20 20 20 20 20 20 20 20 21 20 20 20 21 21 21 22 22 21 21 21 21 21 20 20 21 21 21 21 21 21 21 20 20 20 20 20 20
19 19 19 19 18 18 18 19 18 18 18 18 18 18 18 18 18 19 19 19 19 19 19 19 19 19 20 20 20 20 20 20 20 20 20 20 20 20 21 21 21 21 21 21 21 21 21 21 21 20 21 20 21 21 21 21 21 20 20 20 20 20 20
19 19 19 19 18 18 18 18 18 17 17 17 17 18 18 18 18 18 18 18 19 19 19 19 19 19 19 19 20 21 21 21 20 20 20 20 20 20 21 21 21 21 21 21 21 21 21 21 21 21 21 20 20 21 22 21 20 20 20 20 20 20 20
20 19 19 19 18 18 18 18 17 17 17 17 16 17 17 18 18 18 18 18 18 18 19 19 19 19 19 19 19 20 21 21 21 21 20 20 21 21 21 21 21 20 20 20 20 20 21 21 21 21 21 20 20 21 21 21 20 20 21 20 20 20 20
20 19 19 19 18 18 18 18 17 17 17 16 16 16 16 17 17 17 18 18 17 17 17 18 18 19 19 19 19 19 20 21 20 21 21 21 21 21 21 21 21 21 20 20 20 20 21 21 21 21 21 21 20 20 20 20 20 21 21 20 20 20 20
20 19 19 19 18 18 18 18 17 17 17 16 16 16 16 16 16 16 17 17 17 17 17 17 17 18 18 19 19 19 20 20 20 20 20 21 21 21 21 21 21 21 21 21 20 20 21 21 21 21 21 21 20 20 20 20 20 21 21 20 20 20 20
19 19 19 18 18 18 17 17 17 17 16 16 16 16 16 16 16 16 16 16 17 17 17 17 17 17 17 18 18 19 19 20 20 20 20 20 21 21 21 21 21 21 21 21 21 20 20 20 21 21 21 21 20 20 20 20 21 21 21 20 20 20 20
19 19 18 18 18 18 17 17 17 16 16 15 15 15 15 15 15 15 16 16 17 17 17 17 17 17 17 17 18 18 18 19 19 20 20 20 20 21 21 21 21 21 21 21 21 21 21 20 20 20 21 21 21 21 20 20 21 22 21 20 20 20 20
18 18 18 18 18 17 17 16 16 15 15 15 15 15 15 15 15 15 16 17 17 17 17 17 17 17 17 17 17 18 18 18 18 19 20 20 20 20 21 21 21 21 21 21 21 21 21 21 20 20 20 21 21 20 20 21 21 21 21 20 20 20 20
18 17 17 18 17 16 16 16 15 15 15 14 14 14 14 14 14 15 16 17 17 17 17 17 17 17 17 17 17 18 18 19 19 19 19 20 20 20 20 20 21 21 20 20 20 20 21 21 21 20 20 21 21 20 20 21 21 20 20 20 20 20 20
17 16 17 17 16 16 16 15 14 14 14 14 14 14 14 14 14 15 15 16 16 17 17 17 17 17 17 17 17 18 18 19 19 19 19 19 20 20 20 20 20 20 20 20 20 20 20 21 20 20 20 20 20 20 20 20 20 20 20 20 20 20 20
16 16 17 16 16 16 15 15 14 14 14 14 14 14 14 14 14 15 15 15 15 17 17 18 18 17 17 17 17 18 18 18 18 19 19 19 19 19 20 20 20 20 20 20 20 20 20 20 20 20 20 20 20 20 20 20 20 20 20 20 20 20 19
16 16 16 16 16 15 14 14 14 13 14 14 14 14 14 14 14 14 15 15 15 15 16 17 18 17 17 17 17 17 18 18 18 18 19 19 19 19 19 20 20 20 19 19 19 19 19 19 19 20 20 20 20 20 19 19 19 20 20 20 20 20 19
16 16 16 16 16 14 14 14 13 13 14 13 14 14 13 14 14 14 15 15 15 15 15 15 16 16 16 17 17 17 17 17 18 18 18 19 19 19 19 19 19 19 19 19 19 19 18 18 18 19 20 20 19 19 19 19 19 20 20 20 20 19 19
16 16 16 15 15 14 13 13 13 13 13 13 13 13 13 14 14 14 15 15 15 15 15 15 15 16 16 16 17 18 18 17 17 18 18 18 18 19 19 18 19 19 18 18 18 18 18 18 18 19 20 20 19 19 19 19 19 19 19 19 19 18 18
16 16 16 15 14 14 13 13 13 13 13 13 13 13 14 14 14 14 15 15 15 15 15 16 16 16 16 16 16 16 17 18 17 17 18 18 18 18 18 18 18 18 18 18 18 18 18 18 19 19 19 19 19 19 19 19 19 18 18 18 18 18 17
16 16 15 15 15 14 13 13 13 13 13 13 13 14 15 15 15 15 15 15 15 15 16 16 16 16 16 16 16 16 16 17 17 17 17 18 18 18 18 18 18 18 18 18 18 17 17 18 18 18 18 19 19 19 19 18 18 17 17 17 17 17 17
16 15 15 15 15 14 13 13 13 13 13 13 13 14 15 15 15 15 15 15 15 15 15 15 15 16 16 16 16 16 16 16 16 16 17 18 18 17 17 18 18 17 17 17 17 17 17 17 18 18 18 18 18 18 18 17 16 16 16 17 17 17 17
15 15 15 15 14 13 13 12 13 13 13 13 13 14 15 15 15 15 15 15 15 15 15 15 15 15 15 16 16 16 16 16 16 16 16 17 17 17 17 17 17 17 17 17 18 18 17 17 17 18 18 17 17 18 17 17 16 15 16 16 16 16 16
15 14 15 14 14 13 12 13 13 13 13 13 14 14 14 14 14 15 15 15 15 15 15 15 15 15 15 16 16 16 16 16 16 16 16 16 16 16 16 17 17 17 17 17 18 17 17 17 17 17 17 16 16 17 16 16 16 16 15 15 15 15 15
15 14 14 13 13 12 13 13 13 13 13 13 14 13 13 13 14 14 14 14 14 14 14 14 15 15 15 15 15 15 16 16 16 16 16 16 16 16 16 16 16 16 17 17 17 17 17 17 17 17 16 16 16 16 15 15 16 15 15 15 15 15 14
14 14 13 12 12 12 13 13 13 13 13 13 13 13 13 13 14 14 14 14 13 13 13 13 13 14 15 15 15 15 15 16 16 16 16 16 16 16 16 16 16 16 16 16 16 16 16 16 16 16 16 16 15 15 15 15 15 15 15 15 15 14 14
14 14 13 12 12 12 12 12 12 13 12 12 13 13 13 13 13 13 13 13 13 13 13 13 13 13 13 14 14 14 14 15 15 15 15 16 16 16 16 16 16 16 16 15 15 15 16 16 16 16 16 15 15 15 15 15 14 14 14 14 14 14 14
14 13 13 12 12 12 12 12 12 13 13 12 12 12 13 13 13 13 13 12 12 12 12 12 12 12 12 13 13 13 13 13 14 14 14 15 15 15 14 14 14 14 15 14 14 13 14 15 15 14 13 13 14 14 14 14 14 14 14 14 14 14 14
13 13 13 12 12 12 12 12 13 13 12 12 12 12 13 13 13 13 13 13 12 12 12 12 12 12 12 12 12 12 12 12 12 12 13 13 13 13 13 13 12 12 12 13 12 12 12 12 13 12 12 12 13 13 14 14 14 14 14 14 14 14 14
13 14 14 13 12 12 12 12 12 13 12 12 12 12 12 12 12 12 12 12 12 12 12 12 12 11 11 11 11 11 11 11 11 12 12 12 12 12 12 13 12 11 11 12 12 12 12 12 12 12 12 13 13 14 14 14 14 14 14 14 14 14 14
Height
1516 1516 1518 1520 1521 1523 1524 1525 1528 1530 1532 1534 1536 1539 1541 1542 1544 1546 1547 1549 1550 1552 1553 1555 1557 1558 1559 1561 1563 1564 1566 1568 1569 1570 1572 1573 1574 1574 1575 1576 1576 1576 1577 1577 1578 1578 1579 1579 1580 1581 1581 1581 1581 1582 1582 1583 1583 1584 1584 1584 1585 1585 1586
1515 1516 1517 1518 1519 1521 1522 1524 1526 1527 1529 1531 1533 1536 1537 1539 1541 1543 1545 1546 1548 1550 1552 1553 1555 1557 1558 1560 1561 1563 1564 1566 1567 1569 1570 1571 1571 1572 1573 1574 1574 1575 1575 1576 1577 1577 1577 1577 1578 1578 1579 1579 1580 1581 1581 1582 1582 1582 1583 1583 1584 1584 1584
1515 1515 1516 1517 1518 1519 1521 1522 1524 1525 1527 1529 1531 1533 1535 1536 1538 1540 1542 1544 1546 1548 1550 1551 1553 1555 1557 1558 1560 1561 1562 1564 1565 1567 1568 1569 1570 1571 1572 1572 1573 1573 1574 1574 1575 1576 1576 1576 1577 1577 1577 1578 1579 1580 1580 1580 1581 1581 1582 1582 1582 1583 1583
1515 1515 1515 1516 1517 1518 1519 1520 1522 1524 1526 1527 1529 1531 1533 1534 1536 1537 1539 1542 1544 1546 1547 1549 1551 1553 1555 1556 1558 1560 1561 1562 1564 1565 1566 1568 1569 1569 1570 1571 1571 1572 1572 1573 1573 1574 1575 1576 1576 1576 1576 1577 1578 1578 1579 1579 1580 1580 1580 1581 1581 1582 1582
1516 1515 1515 1516 1516 1518 1518 1519 1521 1522 1524 1526 1527 1529 1530 1532 1534 1535 1538 1540 1542 1544 1546 1548 1549 1551 1552 1554 1556 1558 1559 1560 1562 1563 1564 1566 1567 1568 1568 1569 1569 1570 1571 1571 1572 1572 1573 1574 1575 1575 1576 1576 1577 1577 1578 1578 1579 1579 1579 1580 1580 1581 1581
1516 1516 1516 1516 1516 1517 1518 1519 1520 1521 1523 1524 1525 1527 1528 1531 1532 1533 1536 1538 1540 1542 1544 1546 1548 1549 1551 1552 1553 1555 1557 1558 1559 1560 1562 1563 1564 1565 1566 1567 1568 1569 1570 1570 1571 1571 1572 1572 1573 1574 1575 1575 1576 1577 1577 1578 1578 1579 1579 1579 1579 1580 1581
1516 1516 1517 1516 1517 1517 1517 1519 1519 1520 1522 1522 1524 1526 1527 1529 1531 1532 1534 1537 1538 1539 1541 1544 1546 1547 1549 1550 1551 1553 1554 1556 1557 1558 1560 1561 1562 1563 1564 1565 1566 1567 1568 1568 1569 1570 1571 1571 1572 1573 1573 1574 1575 1576 1576 1577 1577 1578 1578 1578 1578 1579 1579
1517 1517 1517 1517 1517 1517 1517 1518 1519 1520 1521 1522 1523 1524 1525 1527 1530 1531 1533 1535 1536 1537 1538 1541 1543 1545 1546 1547 1549 1550 1551 1553 1554 1556 1557 1558 1560 1561 1562 1563 1564 1565 1566 1567 1568 1568 1569 1570 1570 1571 1572 1572 1573 1574 1575 1575 1575 1576 1577 1577 1578 1578 1579
1517 1517 1517 1517 1516 1516 1517 1517 1518 1519 1519 1521 1522 1523 1524 1526 1528 1530 1531 1533 1534 1534 1536 1539 1541 1542 1543 1544 1546 1548 1549 1551 1552 1553 1554 1556 1557 1559 1560 1561 1562 1563 1564 1565 1566 1566 1567 1568 1569 1569 1570 1570 1571 1572 1572 1573 1574 1575 1575 1576 1576 1576 1577
1516 1516 1517 1517 1516 1516 1516 1517 1518 1518 1518 1519 1520 1521 1523 1524 1526 1527 1528 1530 1531 1532 1534 1536 1538 1540 1541 1542 1543 1545 1547 1548 1549 1551 1552 1553 1555 1556 1558 1559 1560 1561 1561 1563 1564 1565 1565 1566 1567 1567 1567 1568 1569 1569 1570 1571 1572 1573 1573 1574 1573 1573 1574
1516 1516 1516 1516 1517 1516 1516 1517 1517 1518 1518 1518 1519 1520 1521 1522 1524 1525 1526 1527 1528 1530 1531 1533 1536 1538 1538 1539 1541 1543 1544 1546 1547 1548 1549 1550 1552 1553 1555 1557 1558 1559 1560 1560 1562 1563 1564 1564 1565 1565 1565 1566 1567 1568 1568 1569 1570 1570 1571 1571 1571 1572 1572
1516 1516 1516 1516 1516 1516 1516 1517 1517 1517 1517 1517 1518 1518 1519 1520 1522 1523 1524 1525 1526 1527 1529 1531 1533 1535 1536 1537 1538 1540 1541 1543 1545 1546 1547 1548 1549 1551 1553 1554 1555 1557 1557 1558 1559 1560 1561 1562 1563 1563 1563 1564 1565 1566 1566 1567 1568 1568 1568 1569 1570 1570 1570
1516 1515 1516 1516 1515 1516 1516 1516 1517 1517 1517 1517 1517 1517 1518 1518 1519 1521 1522 1522 1524 1525 1527 1528 1530 1531 1532 1534 1535 1537 1538 1540 1542 1543 1545 1546 1546 1548 1549 1551 1553 1554 1555 1556 1557 1558 1559 1560 1561 1560 1561 1562 1563 1564 1564 1565 1565 1565 1566 1567 1567 1567 1567
1515 1515 1516 1515 1515 1516 1515 1516 1516 1516 1516 1516 1516 1516 1516 1517 1517 1518 1519 1520 1521 1523 1525 1526 1527 1528 1529 1530 1532 1533 1534 1537 1539 1540 1542 1543 1544 1545 1546 1548 1550 1551 1553 1554 1555 1556 1557 1558 1559 1558 1559 1560 1560 1561 1562 1562 1563 1563 1563 1565 1565 1565 1565
1515 1515 1515 1515 1515 1515 1515 1516 1516 1515 1516 1515 1515 1515 1515 1515 1516 1516 1517 1518 1519 1520 1522 1524 1525 1526 1527 1527 1528 1530 1531 1533 1535 1537 1539 1540 1541 1542 1543 1545 1547 1548 1550 1551 1552 1553 1554 1555 1556 1557 1557 1558 1558 1558 1559 1560 1560 1560 1561 1562 1563 1563 1563
1514 1514 1515 1514 1515 1515 1515 1515 1515 1515 1515 1514 1514 1514 1514 1514 1515 1515 1515 1516 1516 1517 1519 1520 1522 1523 1524 1525 1526 1527 1528 1530 1532 1533 1535 1536 1538 1539 1540 1542 1544 1545 1546 1547 1548 1550 1551 1552 1553 1554 1555 1555 1555 1556 1556 1557 1558 1558 1559 1560 1560 1561 1562
1513 1514 1514 1514 1514 1514 1514 1514 1514 1514 1514 1513 1514 1513 1513 1513 1513 1513 1514 1514 1514 1515 1516 1517 1518 1519 1521 1522 1523 1524 1525 1527 1528 1530 1531 1533 1534 1536 1537 1539 1540 1542 1543 1544 1545 1546 1547 1548 1549 1550 1552 1553 1553 1554 1554 1555 1555 1555 1556 1558 1558 1559 1559
1513 1513 1513 1514 1514 1514 1514 1514 1513 1513 1513 1512 1512 1512 1512 1512 1512 1512 1512 1512 1512 1513 1513 1515 1516 1517 1518 1519 1521 1522 1522 1524 1525 1526 1528 1529 1531 1532 1533 1535 1536 1538 1539 1540 1542 1543 1543 1544 1545 1546 1548 1549 1550 1551 1552 1552 1551 1552 1554 1555 1556 1557 1557
1512 1513 1513 1513 1513 1513 1513 1513 1512 1512 1512 1511 1511 1510 1510 1510 1510 1510 1510 1510 1510 1510 1511 1512 1513 1514 1515 1516 1517 1519 1519 1521 1522 1523 1525 1526 1527 1529 1530 1531 1533 1534 1535 1537 1538 1540 1540 1541 1542 1543 1544 1546 1547 1548 1549 1549 1548 1549 1552 1552 1554 1555 1555
1512 1512 1512 1513 1513 1513 1513 1512 1512 1511 1510 1510 1509 1508 1508 1507 1507 1507 1507 1507 1508 1508 1509 1510 1510 1511 1512 1513 1514 1515 1516 1518 1518 1519 1521 1522 1524 1525 1526 1528 1529 1530 1532 1534 1535 1536 1537 1538 1539 1540 1541 1542 1543 1544 1546 1545 1544 1547 1549 1550 1551 1552 1553
1511 1511 1512 1512 1512 1512 1511 1511 1510 1509 1508 1508 1507 1506 1506 1505 1505 1505 1504 1505 1505 1506 1506 1507 1507 1508 1509 1510 1511 1512 1513 1514 1515 1516 1517 1519 1520 1521 1522 1524 1525 1527 1529 1530 1531 1532 1533 1535 1536 1537 1538 1539 1540 1541 1541 1541 1542 1544 1546 1547 1548 1549 1550
1510 1511 1511 1511 1511 1511 1510 1510 1509 1508 1507 1506 1505 1504 1504 1503 1503 1502 1502 1502 1503 1503 1504 1504 1505 1506 1506 1507 1508 1508 1509 1510 1511 1512 1513 1515 1516 1517 1518 1520 1521 1523 1525 1526 1527 1529 1530 1531 1533 1534 1535 1536 1537 1538 1537 1537 1539 1541 1543 1544 1545 1546 1547
1509 1510 1510 1510 1510 1510 1509 1509 1507 1506 1505 1504 1503 1503 1502 1501 1501 1500 1500 1500 1500 1501 1501 1502 1502 1503 1503 1504 1504 1505 1506 1507 1508 1509 1509 1511 1512 1513 1514 1516 1517 1519 1521 1522 1524 1525 1526 1528 1529 1530 1531 1532 1533 1534 1534 1535 1537 1539 1540 1541 1542 1543 1544
1508 1509 1509 1509 1509 1508 1508 1507 1505 1504 1503 1502 1502 1501 1500 1500 1499 1498 1498 1498 1498 1498 1498 1498 1499 1500 1500 1501 1501 1502 1503 1503 1504 1505 1506 1507 1508 1509 1510 1512 1514 1516 1517 1519 1520 1522 1523 1524 1525 1527 1528 1529 1530 1531 1531 1533 1535 1536 1538 1539 1540 1541 1541
1507 1508 1508 1508 1508 1507 1506 1505 1503 1503 1502 1501 1501 1499 1498 1498 1497 1497 1496 1496 1496 1496 1496 1496 1496 1496 1497 1497 1498 1498 1499 1500 1500 1501 1502 1502 1503 1505 1506 1508 1510 1512 1513 1515 1517 1518 1519 1521 1522 1523 1525 1526 1527 1528 1530 1531 1532 1534 1535 1536 1537 1538 1538
1507 1507 1507 1508 1507 1506 1505 1503 1503 1502 1501 1500 1499 1498 1497 1496 1496 1495 1494 1494 1494 1494 1493 1494 1493 1493 1493 1493 1494 1494 1495 1496 1496 1497 1497 1498 1499 1500 1501 1503 1506 1508 1509 1511 1513 1514 1516 1518 1519 1520 1521 1523 1524 1526 1528 1528 1529 1531 1532 1533 1534 1534 1534
1506 1506 1507 1507 1505 1504 1504 1503 1502 1500 1499 1499 1498 1497 1496 1495 1494 1494 1493 1492 1492 1491 1491 1491 1490 1490 1490 1490 1489 1490 1490 1491 1492 1492 1493 1494 1495 1496 1496 1498 1501 1503 1506 1508 1509 1511 1513 1514 1516 1517 1518 1520 1522 1523 1524 1525 1526 1528 1528 1529 1531 1531 1531
1506 1506 1506 1505 1504 1504 1503 1502 1501 1500 1499 1497 1496 1495 1494 1494 1493 1492 1491 1491 1490 1489 1489 1488 1487 1487 1486 1486 1486 1486 1486 1486 1487 1488 1489 1491 1491 1492 1492 1494 1497 1499 1501 1503 1505 1507 1509 1510 1512 1513 1515 1516 1518 1519 1521 1522 1523 1524 1525 1527 1528 1528 1529
1505 1505 1505 1505 1505 1504 1502 1501 1500 1499 1498 1497 1496 1494 1493 1492 1491 1490 1490 1489 1488 1487 1486 1485 1484 1483 1483 1483 1483 1482 1482 1482 1482 1484 1486 1487 1489 1489 1490 1491 1493 1495 1497 1499 1501 1503 1504 1506 1507 1509 1511 1512 1514 1515 1518 1519 1520 1522 1523 1524 1525 1525 1527
1504 1505 1504 1504 1504 1503 1501 1501 1499 1498 1498 1496 1495 1493 1492 1491 1490 1489 1488 1487 1485 1484 1483 1482 1481 1480 1480 1480 1480 1479 1479 1478 1479 1480 1482 1484 1486 1487 1487 1488 1490 1490 1493 1495 1497 1498 1500 1502 1503 1505 1507 1509 1510 1512 1514 1516 1517 1520 1521 1521 1521 1522 1524
1504 1504 1503 1504 1503 1501 1500 1499 1498 1498 1497 1495 1494 1492 1491 1490 1488 1487 1486 1485 1483 1482 1481 1480 1479 1478 1478 1478 1478 1477 1477 1476 1477 1478 1479 1481 1483 1483 1484 1486 1487 1487 1489 1491 1493 1495 1497 1499 1500 1502 1503 1505 1506 1508 1510 1512 1515 1518 1519 1520 1519 1520 1522
1503 1503 1503 1503 1502 1500 1500 1499 1498 1498 1496 1494 1493 1492 1490 1489 1487 1486 1484 1483 1481 1480 1478 1477 1477 1476 1476 1476 1475 1475 1475 1475 1475 1476 1477 1478 1479 1480 1481 1483 1484 1485 1486 1488 1490 1491 1493 1495 1497 1499 1501 1502 1504 1506 1508 1510 1513 1516 1517 1517 1517 1519 1521
1503 1502 1502 1502 1500 1499 1499 1499 1498 1497 1495 1494 1492 1491 1490 1489 1487 1485 1483 1482 1480 1478 1477 1475 1475 1474 1474 1473 1473 1473 1474 1474 1474 1474 1475 1475 1476 1478 1479 1480 1481 1483 1484 1485 1487 1488 1489 1492 1494 1496 1498 1500 1502 1504 1505 1507 1510 1513 1514 1514 1515 1518 1521
1502 1501 1501 1501 1499 1499 1499 1498 1497 1496 1495 1493 1492 1491 1490 1488 1486 1484 1483 1481 1479 1478 1476 1475 1474 1473 1472 1472 1472 1472 1472 1472 1472 1472 1473 1473 1474 1475 1477 1478 1479 1480 1481 1482 1484 1485 1487 1489 1491 1493 1495 1496 1498 1500 1503 1506 1509 1511 1513 1514 1516 1518 1521
1501 1501 1501 1500 1499 1499 1498 1497 1497 1495 1494 1493 1492 1491 1490 1488 1486 1484 1482 1481 1479 1478 1477 1475 1474 1473 1472 1471 1471 1471 1471 1471 1471 1471 1471 1472 1473 1474 1475 1476 1477 1478 1479 1481 1483 1484 1485 1487 1488 1491 1493 1495 1496 1498 1501 1505 1509 1512 1513 1516 1519 1520 1522
1501 1501 1500 1500 1500 1499 1498 1497 1496 1495 1494 1493 1492 1492 1490 1488 1486 1484 1483 1481 1480 1479 1478 1477 1475 1473 1472 1471 1471 1471 1471 1471 1471 1471 1471 1472 1472 1473 1474 1475 1477 1478 1479 1480 1482 1484 1485 1486 1488 1491 1493 1494 1496 1499 1501 1504 1509 1512 1515 1518 1521 1524 1526
1500 1500 1500 1500 1499 1499 1498 1497 1496 1495 1495 1493 1493 1493 1491 1489 1487 1485 1484 1483 1481 1481 1480 1478 1476 1475 1474 1473 1473 1473 1473 1473 1473 1473 1473 1473 1474 1474 1475 1476 1478 1481 1482 1483 1485 1488 1490 1491 1493 1497 1500 1500 1499 1501 1504 1508 1510 1513 1516 1519 1523 1527 1530
1499 1500 1500 1500 1499 1499 1498 1497 1496 1495 1495 1494 1494 1493 1492 1490 1489 1487 1486 1485 1484 1483 1482 1480 1478 1477 1476 1476 1476 1476 1476 1476 1476 1476 1476 1476 1477 1477 1478 1478 1479 1482 1486 1488 1490 1493 1497 1498 1499 1502 1507 1510 1508 1506 1508 1511 1513 1515 1518 1522 1526 1530 1533
Wind_Speed
6 9 13 16 17 19 21 21 21 20 20 22 24 23 21 19 20 19 18 19 20 20 19 19 21 23 23 22 21 20 20 19 18 17 16 14 13 12 11 10 10 10 10 10 9 10 10 11 11 11 11 11 10 10 10 10 9 8 8 8 8 8 9
3 5 8 12 15 16 19 21 21 19 19 19 20 21 20 19 20 21 21 20 19 19 19 19 19 22 23 22 21 20 21 20 18 18 17 16 15 14 12 11 11 11 11 10 10 10 10 10 11 11 12 11 10 10 10 9 9 8 8 9 8 9 9
0 2 4 8 12 14 16 18 20 19 19 18 18 18 19 19 20 22 22 22 20 19 19 19 19 20 22 22 21 21 21 20 19 19 18 16 16 14 13 12 12 12 11 11 11 10 10 10 10 11 12 11 10 10 9 9 9 9 9 9 9 8 9
3 1 1 4 8 11 13 15 18 19 19 18 18 18 19 20 21 21 21 21 21 20 20 20 19 20 21 21 21 21 21 20 20 19 18 17 16 14 14 14 13 12 12 11 11 11 10 10 10 11 11 11 10 10 10 9 9 9 9 9 9 9 9
4 3 1 1 3 7 10 13 15 17 18 18 19 21 22 21 20 20 19 19 20 20 20 20 19 20 20 21 21 20 20 20 20 19 18 18 16 15 15 15 14 13 13 12 11 12 13 12 10 10 10 10 10 10 10 10 10 10 10 10 9 9 9
5 5 4 3 1 3 6 9 12 14 17 19 21 23 24 21 19 20 19 19 20 20 20 20 19 19 20 20 20 20 19 20 20 20 19 18 18 17 16 15 15 14 13 13 12 12 13 12 11 10 10 10 9 9 9 9 9 9 9 11 11 10 9
5 6 5 4 2 1 2 5 9 12 15 18 20 21 21 19 19 19 18 19 20 21 20 20 20 19 20 20 20 20 20 20 20 20 19 19 18 18 17 16 16 15 14 14 13 13 12 12 11 11 11 10 10 9 9 10 11 10 9 10 11 11 11
6 6 5 5 3 1 1 3 6 9 13 15 16 17 18 18 18 18 19 20 19 19 20 20 20 20 21 20 20 20 21 20 20 19 19 19 19 19 18 17 16 16 16 15 14 14 13 12 12 11 11 10 10 10 10 10 11 10 8 9 10 11 10
5 5 5 5 4 3 1 2 4 7 10 12 14 15 16 17 18 17 18 19 19 19 20 20 20 21 22 22 21 20 20 20 20 20 20 20 20 20 19 18 17 17 17 16 15 14 14 13 13 12 12 12 12 12 12 11 11 9 9 9 10 10 10
4 5 5 4 5 4 3 1 3 5 8 10 12 14 15 16 17 17 18 18 19 20 21 20 19 21 23 23 21 20 20 20 20 20 21 20 20 20 20 19 18 17 17 16 16 15 14 14 13 14 15 14 14 14 13 12 12 10 10 10 11 11 11
3 3 4 4 5 5 4 3 2 4 6 8 10 12 14 15 16 17 17 18 19 21 21 21 20 21 23 24 22 20 20 20 20 21 21 21 21 21 21 20 19 18 18 17 17 16 15 15 14 15 16 16 15 15 14 13 13 13 12 12 13 12 11
2 3 3 4 4 5 5 4 3 3 5 6 8 10 12 14 15 16 17 18 21 21 20 20 20 21 23 25 24 21 20 20 20 21 21 22 22 21 20 20 20 19 19 18 17 17 16 16 15 16 17 16 15 16 15 14 14 15 15 13 13 12 11
1 2 3 4 4 4 5 4 4 3 3 4 6 8 10 13 15 16 17 19 21 20 19 19 20 21 23 24 24 24 23 21 20 20 21 21 22 22 22 20 20 20 19 18 18 18 18 17 17 18 18 17 17 17 16 16 15 15 16 14 12 13 13
1 1 2 3 3 4 4 4 3 3 3 3 4 6 8 10 12 14 17 19 21 21 20 18 17 19 21 22 23 25 25 23 21 20 20 21 22 23 23 21 20 20 19 19 19 18 18 18 17 18 17 16 17 17 17 17 16 16 16 14 13 14 14
1 1 1 1 2 3 3 3 3 3 3 3 3 4 6 8 9 11 13 15 18 21 22 20 19 18 19 19 22 26 27 26 24 23 22 23 23 24 23 22 21 20 20 20 19 19 19 18 18 18 17 16 17 18 17 17 17 17 16 14 14 14 13
2 1 1 1 1 1 2 3 3 4 4 4 4 3 3 5 8 9 11 12 14 16 19 21 21 21 20 19 20 23 26 27 26 26 25 26 26 25 24 23 22 21 21 21 21 20 20 19 19 18 18 17 18 19 18 17 17 18 16 15 15 14 12
2 2 2 1 0 2 3 4 5 5 5 5 5 4 3 4 6 7 8 10 11 12 14 17 19 20 21 20 19 20 23 26 26 26 27 27 28 27 26 24 24 23 23 22 22 22 23 23 22 20 19 18 18 18 17 16 18 19 17 16 15 13 12
2 2 2 1 1 2 4 5 6 6 7 7 6 5 5 5 5 5 7 9 9 10 11 13 15 16 17 18 19 19 22 25 27 26 27 27 28 28 27 26 25 25 25 24 23 22 23 24 24 23 22 19 18 18 16 17 21 20 17 16 15 13 13
3 2 1 1 2 3 5 6 7 7 7 7 7 6 7 8 7 6 8 10 11 11 11 12 14 16 17 17 18 19 20 23 26 27 26 27 28 28 28 27 27 26 25 24 24 22 22 22 23 24 24 21 21 20 17 20 24 21 17 17 16 14 14
3 2 1 2 3 4 6 7 7 8 8 7 8 9 9 9 8 8 9 11 11 11 12 13 14 15 16 17 16 18 19 20 23 26 27 27 27 28 28 27 27 27 25 24 24 24 23 22 21 23 24 24 23 21 20 23 25 20 17 18 16 15 14
2 1 2 3 4 5 7 7 7 8 8 9 9 8 8 8 8 9 11 13 13 12 13 14 15 14 15 16 17 18 19 19 21 25 27 27 27 28 28 28 27 27 26 26 26 25 25 23 21 22 23 24 23 21 22 25 24 20 19 18 16 15 15
1 1 2 3 5 6 6 7 7 7 9 9 8 7 8 8 8 10 13 14 14 14 14 14 15 15 15 16 18 19 21 21 21 23 26 28 28 28 28 28 28 26 25 25 25 25 26 25 22 21 22 23 22 21 23 25 23 20 19 18 17 16 15
1 2 3 4 6 6 6 8 8 7 8 8 8 7 7 8 9 10 12 12 13 14 14 14 15 14 14 16 17 18 20 22 23 24 25 27 28 29 28 28 28 27 25 24 24 24 25 25 24 22 22 22 22 23 25 25 21 20 19 18 17 16 15
1 2 3 4 5 6 7 8 7 7 7 7 8 7 7 7 9 10 10 10 11 12 14 16 15 15 15 15 16 17 18 21 24 26 26 27 27 28 28 28 29 28 26 24 24 24 24 25 25 25 24 23 24 26 27 25 21 20 20 19 17 16 16
1 2 2 4 6 7 7 7 7 7 7 7 7 7 7 7 8 9 10 10 10 11 13 15 15 14 14 14 15 16 17 19 22 25 27 28 26 26 27 28 28 27 26 25 24 24 24 23 23 25 26 26 26 27 26 23 21 20 19 19 18 18 18
1 2 3 4 7 7 7 7 7 7 7 7 7 7 7 7 8 9 10 10 10 10 10 12 13 13 14 15 17 17 17 19 21 24 26 28 28 28 27 26 26 27 26 25 23 23 24 22 20 23 26 27 25 24 24 23 22 20 19 19 19 20 20
1 1 3 5 6 6 7 7 6 7 8 7 7 8 7 8 9 10 10 10 9 10 10 10 12 13 15 17 18 20 20 20 21 23 25 27 28 29 27 25 25 26 25 24 23 23 23 22 21 23 26 27 25 25 25 24 22 20 20 19 18 17 15
0 2 4 5 6 6 7 7 7 8 8 7 7 8 9 10 10 10 10 9 9 10 11 12 14 15 15 16 18 20 21 22 21 21 23 25 27 28 27 27 27 26 25 25 25 23 22 23 24 26 27 27 27 27 26 25 23 20 18 16 15 14 11
1 3 4 5 6 7 7 7 7 8 8 7 8 8 10 11 12 11 10 10 10 11 11 12 15 16 15 14 16 18 19 21 21 20 21 23 25 26 28 29 29 28 27 26 25 24 23 24 26 27 28 28 28 26 25 24 21 19 17 16 15 13 11
2 4 4 5 6 7 6 7 7 8 7 7 8 9 10 12 11 11 11 11 11 11 10 10 11 13 12 11 12 13 14 16 17 18 21 23 23 25 28 28 28 28 28 27 26 26 26 25 26 28 29 29 28 26 25 23 20 17 16 16 14 12 11
3 4 4 5 5 5 5 6 7 7 7 8 8 9 10 11 11 11 11 12 12 12 11 10 9 9 9 9 9 9 10 10 11 14 19 22 23 24 27 26 26 28 29 28 28 28 27 27 28 30 31 31 29 27 25 23 20 17 16 15 14 14 14
3 3 3 4 5 5 5 6 7 7 7 7 9 9 9 9 10 10 11 11 11 11 10 9 8 7 7 7 8 8 8 8 10 14 17 19 20 22 24 25 27 29 29 28 29 30 29 29 31 32 31 30 28 26 25 24 21 20 20 19 19 19 19
4 4 3 3 4 4 4 5 5 6 6 7 8 9 8 8 9 9 10 11 11 10 9 7 5 4 4 5 8 10 9 9 11 13 16 18 19 20 22 24 26 27 27 28 30 32 32 32 33 33 32 30 28 26 26 26 25 24 25 24 24 24 23
4 4 3 3 3 3 3 4 4 5 6 6 8 8 7 8 9 10 11 12 13 12 10 9 7 5 4 4 7 9 11 11 12 13 14 17 19 22 24 25 25 25 25 28 31 32 32 33 33 33 33 32 31 28 27 27 27 26 26 25 25 26 27
4 3 2 2 3 2 2 3 4 5 5 5 7 7 7 8 10 11 11 12 13 13 10 8 6 5 4 3 3 5 8 12 14 15 16 17 20 23 23 23 24 26 27 28 30 32 34 34 34 34 34 33 31 31 31 31 29 26 25 25 26 27 29
3 2 1 2 1 1 2 3 4 5 4 5 6 6 7 8 10 11 12 13 12 10 9 8 7 7 7 5 4 3 4 8 11 12 13 14 16 18 18 15 15 19 24 26 27 27 28 30 31 31 31 31 32 31 32 32 30 28 27 27 27 28 29
3 2 1 1 0 1 2 3 5 5 4 4 5 5 6 8 9 10 12 13 12 10 9 9 10 11 11 10 10 10 9 9 11 11 11 10 9 11 12 13 14 13 13 16 17 18 19 21 23 24 26 30 33 33 32 31 31 31 30 29 28 27 27
5 4 2 1 0 1 2 3 4 4 4 4 5 5 6 7 8 10 11 11 11 11 11 11 13 14 13 14 15 15 15 17 18 18 18 19 20 21 23 28 32 32 30 27 26 28 29 30 31 30 28 28 29 31 31 30 30 29 28 27 26 25 24
Wind_Direction
221 216 217 219 218 216 213 212 212 210 203 200 201 201 201 200 199 199 200 206 212 214 215 215 213 214 213 212 213 213 212 212 215 216 216 219 220 218 223 225 225 225 222 220 219 218 220 221 216 216 226 233 234 236 238 240 243 246 252 254 250 247 248
218 219 214 217 220 218 215 213 211 211 209 206 203 201 200 199 202 204 204 211 216 214 214 215 215 215 214 213 213 215 216 214 215 217 215 218 220 217 219 224 226 229 228 223 221 222 222 225 224 222 226 232 235 238 239 240 244 246 247 251 252 252 254
144 222 214 216 219 219 218 213 211 211 210 209 206 203 202 200 205 212 213 216 219 215 212 213 215 217 215 214 214 217 219 217 217 218 216 217 220 218 221 226 226 228 231 230 227 225 226 228 231 231 229 229 232 237 239 241 247 249 250 252 253 252 256
55 42 217 223 220 220 220 214 211 210 209 210 208 204 205 206 210 220 224 222 219 216 212 210 211 213 213 214 216 218 220 219 218 219 217 218 219 219 221 226 228 227 229 231 229 226 225 225 231 236 235 231 230 234 238 238 242 245 249 252 252 252 258
51 35 36 259 227 222 221 216 214 211 208 208 205 207 216 219 219 227 232 226 217 214 213 211 209 208 210 213 215 217 219 220 220 219 218 218 219 220 221 223 226 228 228 228 228 229 229 227 229 234 238 239 239 241 245 246 244 249 253 253 251 253 259
42 34 29 16 333 235 224 219 217 211 207 206 207 217 228 228 221 224 230 228 220 216 213 213 212 211 211 212 214 216 218 220 221 222 221 220 219 220 221 223 225 226 228 227 227 230 232 232 230 229 231 236 238 239 243 245 243 245 253 255 252 253 258
34 36 27 21 21 311 238 220 218 210 209 214 220 230 236 229 220 221 227 226 222 221 217 214 214 214 214 214 215 216 217 219 222 223 224 223 222 222 221 223 225 225 226 227 227 227 229 231 230 229 230 231 234 237 237 241 241 239 247 256 257 259 265
33 34 27 23 19 356 242 217 216 211 215 221 224 229 231 224 218 220 224 223 221 222 220 216 215 215 216 217 218 218 218 219 220 223 224 224 224 224 223 224 225 225 225 227 228 229 228 229 228 229 231 230 234 237 236 242 248 248 248 255 262 267 271
35 29 25 20 11 3 320 225 217 218 224 225 223 225 226 223 219 219 222 221 218 219 220 218 216 216 221 226 227 225 222 221 220 222 225 224 224 225 224 224 225 226 227 227 228 230 229 228 227 228 230 229 233 237 238 241 246 248 251 258 265 270 271
29 22 20 15 9 4 355 303 242 235 233 229 229 228 227 226 223 222 222 220 220 223 228 230 225 222 228 235 236 231 226 225 223 222 224 224 225 225 225 225 226 227 229 228 228 229 229 230 227 228 234 237 239 243 246 247 248 250 254 257 258 260 264
19 14 15 16 13 8 8 5 305 263 249 241 238 234 231 228 226 225 223 221 223 229 235 239 236 231 234 240 240 234 228 228 226 225 225 224 224 225 225 226 226 228 230 230 229 229 229 230 228 231 240 246 248 250 252 254 255 255 253 252 256 262 264
21 17 20 24 22 17 15 7 337 295 270 256 248 244 239 233 228 226 224 225 230 236 240 242 240 239 241 243 242 237 230 228 228 228 227 226 226 225 225 227 227 229 231 231 231 230 229 230 229 234 244 249 252 254 256 258 260 259 255 253 259 267 265
52 37 29 31 31 28 21 2 344 329 304 274 257 252 249 243 236 231 229 230 233 235 237 241 242 242 242 244 244 242 236 231 228 229 229 229 229 227 225 226 228 230 230 231 232 231 230 229 229 240 250 253 253 255 257 261 262 259 254 251 257 266 266
104 69 41 39 39 33 25 5 345 336 330 309 267 252 249 249 243 237 236 237 238 236 235 236 237 240 242 243 242 241 239 236 232 230 229 229 231 232 229 226 227 230 230 231 232 232 232 230 230 240 248 250 252 254 256 260 260 256 252 250 256 266 267
153 134 75 58 53 33 12 351 339 337 332 317 286 256 244 243 241 239 239 239 240 241 240 236 232 234 238 239 237 236 237 238 239 237 234 235 238 240 237 231 229 230 230 231 232 232 232 231 229 235 238 242 251 255 257 257 255 252 251 249 254 262 262
184 185 183 133 49 352 328 320 326 333 328 320 313 295 264 248 241 239 240 239 238 239 239 238 237 237 236 237 237 235 235 238 242 243 243 245 246 245 244 241 238 235 232 232 233 233 233 232 230 231 232 237 247 254 257 254 248 250 249 245 252 258 258
205 198 198 194 295 305 298 296 302 308 311 313 313 306 291 266 251 244 241 243 244 241 238 237 239 240 239 238 237 235 235 238 242 244 246 248 249 248 247 246 245 243 240 237 235 235 237 237 236 235 233 234 239 245 249 246 244 249 248 243 249 256 261
229 224 220 228 301 300 286 284 291 296 297 300 303 300 290 274 262 255 249 246 245 244 242 238 235 236 236 237 236 235 238 240 241 244 245 246 248 249 249 248 247 247 246 243 240 238 238 240 240 240 238 233 232 236 238 240 246 250 247 243 245 251 264
251 252 244 274 301 297 293 291 292 294 295 297 294 286 278 270 261 253 247 241 236 234 236 239 238 235 232 234 235 236 238 240 241 243 244 245 245 246 247 249 247 246 245 245 244 242 240 239 238 240 241 237 236 236 233 239 249 251 245 240 240 246 259
251 268 276 296 310 301 295 290 286 288 291 285 276 273 277 277 272 267 261 254 250 243 236 235 238 239 237 237 237 235 235 236 239 241 242 243 244 243 244 246 247 246 245 245 245 245 243 241 238 238 240 240 240 239 236 240 248 249 242 237 238 246 255
242 281 304 311 306 298 293 291 291 290 282 276 277 282 288 285 277 275 274 271 270 265 252 240 236 236 238 239 238 236 235 235 236 236 237 239 240 240 241 242 244 246 246 245 244 243 243 242 240 238 239 241 240 237 235 240 246 247 240 235 237 244 248
234 289 321 313 297 296 298 296 297 294 287 288 295 298 294 287 282 282 281 280 278 275 268 257 247 242 240 239 239 238 237 237 237 236 235 236 237 237 238 239 242 244 244 242 241 242 243 243 241 239 239 240 238 232 234 241 245 243 237 233 236 243 245
214 294 316 304 292 298 300 294 295 301 301 302 304 301 296 291 290 289 286 284 282 278 273 268 261 256 251 246 243 242 240 237 238 238 236 235 234 235 236 237 240 241 240 239 237 238 240 241 239 237 235 234 232 230 235 242 243 238 234 233 237 243 244
206 291 298 294 298 299 294 293 300 308 310 307 305 303 299 297 297 295 291 286 285 283 278 273 269 265 261 255 251 249 246 241 238 238 237 236 234 234 233 234 237 239 239 238 237 237 237 237 235 235 234 233 232 231 235 239 239 237 234 233 239 245 246
194 284 296 305 311 306 299 303 310 313 314 311 310 309 305 302 300 295 292 289 284 283 281 277 274 269 263 260 256 252 249 246 242 238 237 237 235 233 232 233 234 236 236 236 236 235 234 232 231 234 236 235 233 232 234 238 240 239 236 237 242 244 241
188 271 303 308 309 310 313 318 316 315 319 317 315 317 312 308 306 301 297 294 284 280 278 276 275 271 267 265 260 254 249 247 245 240 238 237 235 234 232 231 231 232 232 233 232 229 228 225 227 235 239 237 234 233 235 239 241 241 240 240 243 244 245
150 273 298 305 312 321 322 319 317 318 322 321 320 321 320 317 317 313 307 301 292 284 279 276 273 270 269 268 266 260 254 248 245 242 240 238 236 235 231 228 228 228 227 229 228 224 224 226 230 235 236 233 231 231 233 236 238 238 238 237 239 244 249
146 274 287 307 321 329 323 320 322 321 321 323 324 327 331 330 326 322 314 306 299 290 284 280 273 268 266 266 267 265 260 253 247 242 240 238 236 235 232 228 226 226 224 225 223 220 222 230 234 234 232 229 229 230 231 233 232 230 230 229 229 232 229
264 273 291 314 321 322 323 322 322 321 322 327 328 331 336 333 328 325 318 310 302 295 291 284 274 267 263 262 264 265 263 257 249 240 237 237 235 234 233 230 228 226 222 219 218 220 226 233 234 231 228 226 226 228 229 228 224 220 219 220 220 218 218
264 275 298 317 316 318 323 322 323 326 328 329 331 334 334 329 325 326 324 320 314 307 302 296 280 263 253 257 266 267 263 260 251 237 231 232 232 232 233 231 228 226 223 221 224 230 233 233 231 229 226 223 222 223 223 219 212 203 203 208 206 199 201
253 274 306 315 312 319 326 322 325 330 331 335 339 338 333 330 332 334 332 328 323 315 310 306 289 261 243 248 263 269 267 260 245 231 227 227 228 230 231 229 225 225 226 229 232 236 235 230 227 226 223 219 217 216 214 210 200 184 178 184 178 167 165
260 280 306 305 304 320 330 325 326 330 334 344 349 346 341 343 348 348 345 342 336 327 317 309 292 268 246 242 252 259 259 247 232 224 222 224 226 228 229 229 230 232 235 235 234 234 231 228 226 225 222 216 211 207 201 198 192 174 161 160 153 144 139
262 279 292 297 303 321 330 326 329 333 337 349 357 354 350 353 360 1 360 0 359 354 350 344 331 302 262 253 259 257 247 238 232 225 220 222 226 227 227 228 230 231 232 232 232 230 226 225 224 223 218 210 205 198 190 183 177 165 154 149 143 137 135
258 276 290 305 312 325 333 331 337 341 344 354 3 1 355 358 8 10 10 13 15 14 11 6 0 351 325 295 283 266 246 235 231 226 222 221 222 222 224 226 228 227 223 221 223 224 223 222 221 218 215 208 199 188 173 164 158 151 145 142 139 138 139
249 259 276 298 311 328 340 344 347 346 348 356 2 1 1 9 16 17 17 20 20 18 15 12 10 11 6 343 304 267 240 225 218 217 220 221 219 216 216 218 224 227 223 216 212 213 216 216 213 210 208 202 190 173 159 150 145 140 136 135 136 138 140
222 217 241 280 304 334 349 3 2 349 346 0 4 2 8 21 28 29 30 31 28 25 29 37 47 57 64 71 86 125 182 190 186 187 195 204 208 207 202 196 203 216 217 210 203 200 203 204 198 191 182 172 161 152 144 139 136 132 128 128 132 137 140
186 177 206 249 346 21 17 24 11 348 341 9 21 19 22 31 37 38 39 41 41 42 51 65 77 86 90 95 103 111 121 132 134 137 146 158 170 178 169 146 129 134 159 173 168 155 149 151 149 144 139 136 133 131 129 128 127 125 123 124 128 134 140
168 159 173 202 146 23 22 42 29 354 345 24 47 48 43 44 49 52 54 55 55 56 63 72 83 91 97 102 107 110 113 117 120 121 124 124 124 125 124 120 114 110 110 114 118 117 114 112 113 114 115 116 119 120 121 121 119 117 118 121 125 132 142